Tracking 21470 objects as of 23-Sep-2020
HD Live streaming from Space Station
objects crossing your sky now

COSMOS 1974

Track COSMOS 1974 now!
COSMOS 1974 is classified as:


NORAD ID: 19554
Int'l Code: 1988-092A
Perigee: 6,957.6 km
Apogee: 33,440.3 km
Inclination: 69.9 °
Period: 718.4 minutes
Semi major axis: 26569 km
RCS: 16.1296 m2 (large)
Launch date: October 3, 1988
Source: Commonwealth of Independent States (former USSR) (CIS)
Launch site: PLESETSK MISSILE AND SPACE COMPLEX (PKMTR)
aabbcc
Your satellite tracking list
Your tracking list is empty




NASA's NSSDC Master Catalog

Two Line Element Set (TLE):
1 19554U 88092A   20266.50593978 +.00000068 +00000-0 +00000-0 0  9997
2 19554 069.8980 262.1182 4983585 121.4848 272.4566 02.00455382234132
Source of the keplerian elements: AFSPC